HISAKI (SPRINT-A)

Last updated on Thu Jul 03 2025 00:03:31 GMT+0000 (Coordinated Universal Time)

1 39253U 13049A 25183.43857728 .00000104 00000+0 55784-4 0 9999 2 39253 29.7171 198.0862 0136915 61.4784 299.9498 13.55495506583931
UTC large
Height (km)
Speed (km/s)
/
Latitude / Longitude
Inclination (degrees)
Orbital Period (minutes)
Azimuth
Elevation
Range (km)
Doppler Factor

Next 0 passes for location: London (51.5072 / 0.1276)

Sorry there are no passes over London.